TimeCST,TemperatureF,Dew PointF,Humidity,Sea Level PressureIn,VisibilityMPH,Wind Direction,Wind SpeedMPH,Gust SpeedMPH,PrecipitationIn,Events,Conditions,WindDirDegrees,DateUTC
12:25 AM,39.2,37.4,93,30.16,7.0,NNW,12.7,-,0.03,Rain,Light Rain,330,2013-12-10 06:25:00
12:53 AM,37.9,37.0,97,30.17,5.0,NNW,11.5,-,0.06,Rain,Light Rain,330,2013-12-10 06:53:00
1:22 AM,37.4,35.6,93,30.17,4.0,North,9.2,-,0.02,Rain,Light Rain,350,2013-12-10 07:22:00
1:48 AM,37.4,35.6,93,30.18,10.0,NNW,12.7,-,0.02,,Overcast,330,2013-12-10 07:48:00
1:53 AM,37.9,36.0,93,30.19,10.0,NNW,11.5,-,0.02,,Overcast,340,2013-12-10 07:53:00
2:53 AM,37.0,36.0,96,30.21,10.0,NNW,12.7,-,N/A,,Overcast,330,2013-12-10 08:53:00
3:50 AM,37.4,35.6,93,30.22,10.0,NNW,12.7,-,N/A,,Overcast,340,2013-12-10 09:50:00
3:53 AM,37.0,35.1,93,30.22,10.0,NNW,9.2,-,N/A,,Overcast,340,2013-12-10 09:53:00
4:37 AM,35.6,33.8,93,30.23,10.0,NNW,15.0,-,N/A,,Overcast,330,2013-12-10 10:37:00
4:53 AM,36.0,34.0,93,30.24,10.0,NNW,12.7,-,N/A,,Overcast,340,2013-12-10 10:53:00
5:53 AM,35.1,33.1,92,30.29,10.0,NNW,15.0,20.7,N/A,,Overcast,330,2013-12-10 11:53:00
6:18 AM,35.6,32.0,87,30.29,10.0,NNW,16.1,27.6,N/A,,Overcast,340,2013-12-10 12:18:00
6:53 AM,34.0,30.9,89,30.34,10.0,NNW,17.3,27.6,N/A,,Overcast,340,2013-12-10 12:53:00
7:53 AM,34.0,30.9,89,30.36,10.0,NNW,17.3,32.2,N/A,,Overcast,340,2013-12-10 13:53:00
8:53 AM,34.0,30.0,85,30.39,10.0,North,11.5,20.7,N/A,,Overcast,350,2013-12-10 14:53:00
9:53 AM,36.0,30.9,82,30.40,10.0,North,10.4,-,N/A,,Overcast,360,2013-12-10 15:53:00
10:53 AM,37.9,30.9,76,30.39,10.0,NNW,13.8,-,N/A,,Mostly Cloudy,340,2013-12-10 16:53:00
11:08 AM,39.2,30.2,70,30.38,10.0,Variable,6.9,-,N/A,,Scattered Clouds,0,2013-12-10 17:08:00
11:53 AM,42.1,30.0,62,30.37,10.0,NNE,9.2,20.7,N/A,,Clear,20,2013-12-10 17:53:00
12:53 PM,45.0,30.0,56,30.33,10.0,North,11.5,18.4,N/A,,Clear,360,2013-12-10 18:53:00
1:53 PM,46.9,30.0,52,30.31,10.0,North,8.1,-,N/A,,Clear,360,2013-12-10 19:53:00
2:53 PM,46.9,30.0,52,30.31,10.0,NNE,11.5,17.3,N/A,,Clear,30,2013-12-10 20:53:00
3:53 PM,46.9,30.0,52,30.32,10.0,NNE,6.9,-,N/A,,Clear,30,2013-12-10 21:53:00
4:53 PM,45.0,30.9,58,30.34,10.0,NNE,4.6,-,N/A,,Clear,20,2013-12-10 22:53:00
5:53 PM,42.1,30.9,65,30.34,10.0,Calm,Calm,-,N/A,,Clear,0,2013-12-10 23:53:00
6:53 PM,39.9,30.9,70,30.35,10.0,North,3.5,-,N/A,,Clear,10,2013-12-11 00:53:00
7:53 PM,39.0,30.0,70,30.35,10.0,NNE,3.5,-,N/A,,Clear,20,2013-12-11 01:53:00
8:53 PM,37.9,30.0,73,30.36,10.0,NE,3.5,-,N/A,,Clear,40,2013-12-11 02:53:00
9:53 PM,37.0,30.0,76,30.36,10.0,Calm,Calm,-,N/A,,Clear,0,2013-12-11 03:53:00
10:53 PM,36.0,30.0,79,30.37,10.0,Calm,Calm,-,N/A,,Clear,0,2013-12-11 04:53:00
11:53 PM,35.1,30.0,82,30.37,10.0,Calm,Calm,-,N/A,,Clear,0,2013-12-11 05:53:00